,,,PA_Meas_PMT16A,,PR_Meas_QMR101_102,,RH_Meas_QMH101,,SR_Meas_QMS101,,TA_Meas_QMH101,,GenWind,,GenWind,
date,time,status,PA,status,PR,status,RH,status,SR,status,TA,status,DirAvg,status,SpdAvg,
2011-12-23, 00:00:05,VALID,997.386,VALID,0,VALID,93.2645,VALID,0,VALID,23.9549,VALID,40,VALID,0,
2011-12-23, 00:01:05,VALID,997.374,VALID,0,VALID,93.2797,VALID,0,VALID,23.9549,VALID,40,VALID,0,
2011-12-23, 00:02:05,VALID,997.404,VALID,0,VALID,93.2645,VALID,0,VALID,23.9354,VALID,40,VALID,0,
2011-12-23, 00:03:05,VALID,997.336,VALID,0,VALID,93.2721,VALID,0,VALID,23.9336,VALID,40,VALID,0,
2011-12-23, 00:04:05,VALID,997.301,VALID,0,VALID,93.2797,VALID,0,VALID,23.9354,VALID,40,VALID,0,
2011-12-23, 00:05:05,VALID,997.299,VALID,0,VALID,93.3408,VALID,0,VALID,23.9549,VALID,40,VALID,0,
2011-12-23, 00:06:05,VALID,997.25,VALID,0,VALID,93.356,VALID,0,VALID,23.9549,VALID,47,VALID,0,
2011-12-23, 00:07:05,VALID,997.26,VALID,0,VALID,93.3484,VALID,0,VALID,23.9531,VALID,57,VALID,0,
2011-12-23, 00:08:05,VALID,997.235,VALID,0,VALID,93.3331,VALID,0,VALID,23.9531,VALID,57,VALID,0,
2011-12-23, 00:09:05,VALID,997.246,VALID,0,VALID,93.3103,VALID,0,VALID,23.9744,VALID,57,VALID,0,
2011-12-23, 00:10:05,VALID,997.208,VALID,0,VALID,93.2721,VALID,0,VALID,23.9744,VALID,57,VALID,0,
2011-12-23, 00:11:05,VALID,997.185,VALID,0,VALID,93.1729,VALID,0,VALID,23.9549,VALID,57,VALID,0,
2011-12-23, 00:12:05,VALID,997.187,VALID,0,VALID,93.1195,VALID,0,VALID,23.9744,VALID,57,VALID,0,
2011-12-23, 00:13:05,VALID,997.163,VALID,0,VALID,93.028,VALID,0,VALID,23.9354,VALID,57,VALID,0,
2011-12-23, 00:14:05,VALID,997.182,VALID,0,VALID,92.9211,VALID,0,VALID,23.8945,VALID,57,VALID,0,
2011-12-23, 00:15:05,VALID,997.162,VALID,0,VALID,92.8296,VALID,0,VALID,23.8768,VALID,57,VALID,0,
2011-12-23, 00:16:05,VALID,997.142,VALID,0,VALID,92.8067,VALID,0,VALID,23.8378,VALID,279,VALID,0,
2011-12-23, 00:17:05,VALID,997.157,VALID,0,VALID,92.9288,VALID,0,VALID,23.8963,VALID,279,VALID,0,
2011-12-23, 00:18:05,VALID,997.164,VALID,0,VALID,93.0127,VALID,0,VALID,23.9159,VALID,279,VALID,0,
2011-12-23, 00:19:05,VALID,997.158,VALID,0,VALID,93.0737,VALID,0,VALID,23.9354,VALID,279,VALID,0,
2011-12-23, 00:20:05,VALID,997.138,VALID,0,VALID,93.1043,VALID,0,VALID,23.9354,VALID,279,VALID,0,
2011-12-23, 00:21:05,VALID,997.116,VALID,0,VALID,93.1271,VALID,0,VALID,23.9549,VALID,279,VALID,0,
2011-12-23, 00:22:05,VALID,997.135,VALID,0,VALID,93.1271,VALID,0,VALID,23.9744,VALID,279,VALID,0,
2011-12-23, 00:23:05,VALID,997.092,VALID,0,VALID,93.1271,VALID,0,VALID,23.9939,VALID,115,VALID,0.305469,
2011-12-23, 00:24:05,VALID,997.073,VALID,0,VALID,93.089,VALID,0,VALID,24.0329,VALID,109,VALID,1.24648,
2011-12-23, 00:25:05,VALID,997.057,VALID,0,VALID,92.9974,VALID,0,VALID,24.072,VALID,98,VALID,1.00586,
2011-12-23, 00:26:05,VALID,997.025,VALID,0,VALID,92.8296,VALID,0,VALID,24.0897,VALID,95,VALID,0.859766,
2011-12-23, 00:27:05,VALID,997.046,VALID,0,VALID,92.6617,VALID,0,VALID,24.1305,VALID,95,VALID,0.472266,
2011-12-23, 00:28:05,VALID,997.033,VALID,0,VALID,92.4481,VALID,0,VALID,24.0897,VALID,95,VALID,0.367969,
2011-12-23, 00:29:05,VALID,997.029,VALID,0,VALID,92.3031,VALID,0,VALID,24.111,VALID,95,VALID,0.533594,
2011-12-23, 00:30:05,VALID,996.995,VALID,0,VALID,92.3031,VALID,0,VALID,24.0915,VALID,89,VALID,0.816797,
2011-12-23, 00:31:05,VALID,997.001,VALID,0,VALID,92.2192,VALID,0,VALID,24.0701,VALID,67,VALID,0.786328,
2011-12-23, 00:32:05,VALID,996.964,VALID,0,VALID,92.1734,VALID,0.104696,VALID,24.0506,VALID,64,VALID,0.795703,
2011-12-23, 00:33:05,VALID,996.948,VALID,0,VALID,92.1124,VALID,0,VALID,24.0915,VALID,68,VALID,1.04805,
2011-12-23, 00:34:05,VALID,996.941,VALID,0,VALID,92.0285,VALID,0.104696,VALID,24.1092,VALID,68,VALID,1.18125,
2011-12-23, 00:35:05,VALID,996.925,VALID,0,VALID,91.8835,VALID,0,VALID,24.1305,VALID,68,VALID,1.46094,
2011-12-23, 00:36:05,VALID,996.899,VALID,0,VALID,91.7309,VALID,0,VALID,24.1287,VALID,88,VALID,1.79727,
2011-12-23, 00:37:05,VALID,996.899,VALID,0,VALID,91.5249,VALID,0,VALID,24.2086,VALID,88,VALID,1.29219,
2011-12-23, 00:38:05,VALID,996.879,VALID,0,VALID,91.3266,VALID,0,VALID,24.1872,VALID,78,VALID,1.175,
2011-12-23, 00:39:05,VALID,996.871,VALID,0,VALID,91.2579,VALID,0.104696,VALID,24.2263,VALID,63,VALID,0.8125,
2011-12-23, 00:40:05,VALID,996.818,VALID,0,VALID,91.2121,VALID,0,VALID,24.2067,VALID,328,VALID,0.540625,
2011-12-23, 00:41:05,VALID,996.829,VALID,0,VALID,91.2808,VALID,0,VALID,24.1482,VALID,328,VALID,0.375781,
2011-12-23, 00:42:05,VALID,996.748,VALID,0,VALID,91.3952,VALID,0,VALID,24.1696,VALID,328,VALID,0,
2011-12-23, 00:43:05,VALID,996.76,VALID,0,VALID,91.4639,VALID,0,VALID,24.1092,VALID,328,VALID,0,
2011-12-23, 00:44:05,VALID,996.724,VALID,0,VALID,91.5631,VALID,0,VALID,24.0701,VALID,328,VALID,0.146875,
2011-12-23, 00:45:05,VALID,996.727,VALID,0,VALID,91.6623,VALID,0,VALID,24.072,VALID,328,VALID,0,
2011-12-23, 00:46:05,VALID,996.729,VALID,0,VALID,91.7462,VALID,0.104696,VALID,24.0311,VALID,328,VALID,0,
2011-12-23, 00:47:05,VALID,996.703,VALID,0,VALID,91.8225,VALID,0,VALID,24.0116,VALID,328,VALID,0,
2011-12-23, 00:48:05,VALID,996.664,VALID,0,VALID,91.9369,VALID,0,VALID,24.0116,VALID,328,VALID,0.00195313,
2011-12-23, 00:49:05,VALID,996.613,VALID,0,VALID,91.998,VALID,0,VALID,23.9726,VALID,328,VALID,0.0410156,
2011-12-23, 00:50:05,VALID,996.615,VALID,0,VALID,92.0514,VALID,0.104696,VALID,23.9531,VALID,328,VALID,0,
2011-12-23, 00:51:05,VALID,996.62,VALID,0,VALID,92.1582,VALID,0,VALID,23.9336,VALID,328,VALID,0,
2011-12-23, 00:52:05,VALID,996.576,VALID,0,VALID,92.2421,VALID,0,VALID,23.914,VALID,328,VALID,0,
2011-12-23, 00:53:05,VALID,996.565,VALID,0,VALID,92.3413,VALID,0,VALID,23.9354,VALID,328,VALID,0,
2011-12-23, 00:54:05,VALID,996.552,VALID,0,VALID,92.3871,VALID,0,VALID,23.8963,VALID,328,VALID,0,
2011-12-23, 00:55:05,VALID,996.54,VALID,0,VALID,92.4328,VALID,0,VALID,23.8963,VALID,328,VALID,0,
2011-12-23, 00:56:05,VALID,996.531,VALID,0,VALID,92.471,VALID,0,VALID,23.875,VALID,328,VALID,0,
2011-12-23, 00:57:05,VALID,996.532,VALID,0,VALID,92.5244,VALID,0,VALID,23.875,VALID,328,VALID,0.248437,
2011-12-23, 00:58:05,VALID,996.536,VALID,0,VALID,92.5473,VALID,0,VALID,23.836,VALID,329,VALID,0.676562,
2011-12-23, 00:59:05,VALID,996.538,VALID,0,VALID,92.5854,VALID,0,VALID,23.8183,VALID,328,VALID,0.807031,
2011-12-23, 01:00:05,VALID,996.522,VALID,0,VALID,92.616,VALID,0,VALID,23.7384,VALID,12,VALID,0.664844,
2011-12-23, 01:01:05,VALID,996.481,VALID,0,VALID,92.6923,VALID,0,VALID,23.7384,VALID,28,VALID,0.779688,
2011-12-23, 01:02:05,VALID,996.489,VALID,0,VALID,92.8601,VALID,0,VALID,23.7384,VALID,55,VALID,0.876562,
2011-12-23, 01:03:05,VALID,996.476,VALID,0,VALID,92.9059,VALID,0,VALID,23.7793,VALID,72,VALID,0.546875,
2011-12-23, 01:04:05,VALID,996.476,VALID,0,VALID,92.8983,VALID,0,VALID,23.7793,VALID,72,VALID,0.0121094,
2011-12-23, 01:05:05,VALID,996.48,VALID,0,VALID,92.883,VALID,0,VALID,23.7793,VALID,72,VALID,0.276172,
2011-12-23, 01:06:05,VALID,996.446,VALID,0,VALID,92.8983,VALID,0,VALID,23.7579,VALID,72,VALID,0.136719,
2011-12-23, 01:07:05,VALID,996.423,VALID,0,VALID,92.9364,VALID,0,VALID,23.7775,VALID,72,VALID,0.180469,
2011-12-23, 01:08:05,VALID,996.428,VALID,0,VALID,92.9669,VALID,0,VALID,23.8378,VALID,72,VALID,0.471094,
2011-12-23, 01:09:05,VALID,996.394,VALID,0,VALID,92.9364,VALID,0,VALID,23.836,VALID,73,VALID,0.710547,
2011-12-23, 01:10:05,VALID,996.37,VALID,0,VALID,92.8983,VALID,0,VALID,23.8945,VALID,107,VALID,0.897266,
2011-12-23, 01:11:05,VALID,996.343,VALID,0,VALID,92.7533,VALID,0,VALID,23.9549,VALID,106,VALID,1.3207,
2011-12-23, 01:12:05,VALID,996.307,VALID,0,VALID,92.5244,VALID,0,VALID,24.0311,VALID,102,VALID,1.73906,
2011-12-23, 01:13:05,VALID,996.332,VALID,0,VALID,92.265,VALID,0,VALID,24.072,VALID,109,VALID,1.42813,
2011-12-23, 01:14:05,VALID,996.326,VALID,0,VALID,91.9598,VALID,0,VALID,24.0701,VALID,90,VALID,1.41875,
2011-12-23, 01:15:05,VALID,996.33,VALID,0,VALID,91.8377,VALID,0,VALID,24.072,VALID,86,VALID,1.12305,
2011-12-23, 01:16:05,VALID,996.336,VALID,0,VALID,91.7996,VALID,0,VALID,24.0525,VALID,90,VALID,1.01602,
2011-12-23, 01:17:05,VALID,996.296,VALID,0,VALID,91.8072,VALID,0,VALID,23.9921,VALID,81,VALID,1.06875,
2011-12-23, 01:18:05,VALID,996.303,VALID,0,VALID,91.8454,VALID,0,VALID,23.9744,VALID,94,VALID,1.03828,
2011-12-23, 01:19:05,VALID,996.28,VALID,0,VALID,91.9064,VALID,0,VALID,23.9336,VALID,86,VALID,1.16875,
2011-12-23, 01:20:05,VALID,996.229,VALID,0,VALID,91.998,VALID,0,VALID,23.9159,VALID,85,VALID,1.00117,
2011-12-23, 01:21:05,VALID,996.271,VALID,0,VALID,92.1124,VALID,0,VALID,23.8963,VALID,77,VALID,1.05156,
2011-12-23, 01:22:05,VALID,996.241,VALID,0,VALID,92.2116,VALID,0,VALID,23.8768,VALID,77,VALID,0.692578,
2011-12-23, 01:23:05,VALID,996.279,VALID,0,VALID,92.2497,VALID,0,VALID,23.8573,VALID,77,VALID,0.670703,
2011-12-23, 01:24:05,VALID,996.284,VALID,0,VALID,92.204,VALID,0,VALID,23.8378,VALID,77,VALID,0.343359,
2011-12-23, 01:25:05,VALID,996.299,VALID,0,VALID,92.1811,VALID,0,VALID,23.7988,VALID,77,VALID,0.234375,
2011-12-23, 01:26:05,VALID,996.318,VALID,0,VALID,92.2497,VALID,0,VALID,23.7793,VALID,77,VALID,0.116016,
2011-12-23, 01:27:05,VALID,996.306,VALID,0,VALID,92.2726,VALID,0,VALID,23.7402,VALID,77,VALID,0,
2011-12-23, 01:28:05,VALID,996.316,VALID,0,VALID,92.2955,VALID,0,VALID,23.7012,VALID,77,VALID,0.189453,
2011-12-23, 01:29:05,VALID,996.317,VALID,0,VALID,92.4481,VALID,0,VALID,23.6817,VALID,77,VALID,0.286328,
2011-12-23, 01:30:05,VALID,996.319,VALID,0,VALID,92.5854,VALID,0,VALID,23.6817,VALID,77,VALID,0.266016,
2011-12-23, 01:31:05,VALID,996.29,VALID,0,VALID,92.6312,VALID,0,VALID,23.6817,VALID,77,VALID,0,
2011-12-23, 01:32:05,VALID,996.258,VALID,0,VALID,92.6999,VALID,0,VALID,23.6622,VALID,77,VALID,0,
2011-12-23, 01:33:05,VALID,996.217,VALID,0,VALID,92.7533,VALID,0,VALID,23.6427,VALID,77,VALID,0.222656,
2011-12-23, 01:34:05,VALID,996.209,VALID,0,VALID,92.8448,VALID,0,VALID,23.6427,VALID,77,VALID,0.330859,
2011-12-23, 01:35:05,VALID,996.195,VALID,0,VALID,92.9059,VALID,0,VALID,23.6445,VALID,77,VALID,0.348437,
2011-12-23, 01:36:05,VALID,996.236,VALID,0,VALID,92.8906,VALID,0,VALID,23.6036,VALID,77,VALID,0.407422,
2011-12-23, 01:37:05,VALID,996.187,VALID,0,VALID,92.8067,VALID,0,VALID,23.5646,VALID,77,VALID,0.592969,
2011-12-23, 01:38:05,VALID,996.204,VALID,0,VALID,92.8601,VALID,0,VALID,23.5256,VALID,77,VALID,0.414063,
2011-12-23, 01:39:05,VALID,996.182,VALID,0,VALID,92.883,VALID,0,VALID,23.4671,VALID,77,VALID,0.128125,
2011-12-23, 01:40:05,VALID,996.174,VALID,0,VALID,92.8067,VALID,0,VALID,23.428,VALID,77,VALID,0,
2011-12-23, 01:41:05,VALID,996.153,VALID,0,VALID,92.8143,VALID,0,VALID,23.389,VALID,77,VALID,0,
2011-12-23, 01:42:05,VALID,996.163,VALID,0,VALID,92.9517,VALID,0,VALID,23.389,VALID,27,VALID,0.442578,
2011-12-23, 01:43:05,VALID,996.15,VALID,0,VALID,93.15,VALID,0,VALID,23.4475,VALID,330,VALID,0.778516,
2011-12-23, 01:44:05,VALID,996.151,VALID,0,VALID,93.2797,VALID,0,VALID,23.4671,VALID,330,VALID,0.675391,
2011-12-23, 01:45:05,VALID,996.164,VALID,0,VALID,93.3255,VALID,0,VALID,23.4671,VALID,330,VALID,0.605469,
2011-12-23, 01:46:05,VALID,996.159,VALID,0,VALID,93.3713,VALID,0,VALID,23.4866,VALID,344,VALID,0.662891,
2011-12-23, 01:47:05,VALID,996.143,VALID,0,VALID,93.4323,VALID,0,VALID,23.5256,VALID,351,VALID,0.623047,
2011-12-23, 01:48:05,VALID,996.143,VALID,0,VALID,93.3866,VALID,0,VALID,23.5433,VALID,351,VALID,0.651563,
2011-12-23, 01:49:05,VALID,996.119,VALID,0,VALID,93.2492,VALID,0,VALID,23.5451,VALID,351,VALID,0.544531,
2011-12-23, 01:50:05,VALID,996.073,VALID,0,VALID,93.1805,VALID,0,VALID,23.5451,VALID,351,VALID,0.3875,
2011-12-23, 01:51:05,VALID,996.033,VALID,0,VALID,93.0966,VALID,0,VALID,23.5256,VALID,351,VALID,0,
2011-12-23, 01:52:05,VALID,996.014,VALID,0,VALID,93.0051,VALID,0,VALID,23.5061,VALID,351,VALID,0,
2011-12-23, 01:53:05,VALID,996.047,VALID,0,VALID,93.0051,VALID,0,VALID,23.5061,VALID,351,VALID,0,
2011-12-23, 01:54:05,VALID,996.024,VALID,0,VALID,93.0356,VALID,0,VALID,23.5061,VALID,351,VALID,0.184766,
2011-12-23, 01:55:05,VALID,996.015,VALID,0,VALID,93.0814,VALID,0,VALID,23.5061,VALID,351,VALID,0.480859,
2011-12-23, 01:56:05,VALID,996.034,VALID,0,VALID,93.1577,VALID,0,VALID,23.5256,VALID,351,VALID,0.511719,
2011-12-23, 01:57:05,VALID,996.021,VALID,0,VALID,93.1195,VALID,0,VALID,23.5061,VALID,359,VALID,0.643359,
2011-12-23, 01:58:05,VALID,996.025,VALID,0,VALID,93.1043,VALID,0,VALID,23.5061,VALID,162,VALID,0.782812,
2011-12-23, 01:59:05,VALID,996.03,VALID,0,VALID,93.1119,VALID,0,VALID,23.5451,VALID,162,VALID,0.594922,
2011-12-23, 02:00:05,VALID,996.034,VALID,0,VALID,93.0661,VALID,0,VALID,23.5628,VALID,162,VALID,0.551953,
2011-12-23, 02:01:05,VALID,996.021,VALID,0,VALID,93.0127,VALID,0,VALID,23.6019,VALID,120,VALID,0.829687,
2011-12-23, 02:02:05,VALID,996.025,VALID,0,VALID,92.9593,VALID,0,VALID,23.6427,VALID,117,VALID,0.759375,
2011-12-23, 02:03:05,VALID,996.019,VALID,0,VALID,92.8677,VALID,0,VALID,23.6622,VALID,117,VALID,0.519922,
2011-12-23, 02:04:05,VALID,995.994,VALID,0,VALID,92.7838,VALID,0,VALID,23.6622,VALID,117,VALID,0.291406,
2011-12-23, 02:05:05,VALID,996.01,VALID,0,VALID,92.6465,VALID,0,VALID,23.6622,VALID,117,VALID,0,
2011-12-23, 02:06:05,VALID,996.034,VALID,0,VALID,92.5702,VALID,0,VALID,23.6427,VALID,117,VALID,0,
2011-12-23, 02:07:05,VALID,996.013,VALID,0,VALID,92.5091,VALID,0,VALID,23.6232,VALID,117,VALID,0,
2011-12-23, 02:08:05,VALID,996.005,VALID,0,VALID,92.5397,VALID,0,VALID,23.6232,VALID,117,VALID,0,
2011-12-23, 02:09:05,VALID,995.992,VALID,0,VALID,92.5931,VALID,0,VALID,23.6232,VALID,117,VALID,0.401172,
2011-12-23, 02:10:05,VALID,995.991,VALID,0,VALID,92.6846,VALID,0.104696,VALID,23.6427,VALID,96,VALID,0.703906,
2011-12-23, 02:11:05,VALID,995.965,VALID,0,VALID,92.7457,VALID,0,VALID,23.6817,VALID,67,VALID,1.0832,
2011-12-23, 02:12:05,VALID,995.943,VALID,0,VALID,92.7151,VALID,0.104696,VALID,23.6994,VALID,73,VALID,1.1168,
2011-12-23, 02:13:05,VALID,995.942,VALID,0,VALID,92.5702,VALID,0,VALID,23.7207,VALID,73,VALID,0.796484,
2011-12-23, 02:14:05,VALID,995.957,VALID,0,VALID,92.4939,VALID,0.104696,VALID,23.7012,VALID,88,VALID,0.919141,
2011-12-23, 02:15:04,VALID,995.929,VALID,0,VALID,92.4557,VALID,0.104696,VALID,23.6604,VALID,87,VALID,0.900781,
2011-12-23, 02:16:04,VALID,995.936,VALID,0,VALID,92.4939,VALID,0.104696,VALID,23.6214,VALID,88,VALID,1.13555,
2011-12-23, 02:17:04,VALID,995.911,VALID,0,VALID,92.5015,VALID,0,VALID,23.6214,VALID,92,VALID,1.13125,
2011-12-23, 02:18:04,VALID,995.917,VALID,0,VALID,92.532,VALID,0,VALID,23.6427,VALID,70,VALID,0.717969,
2011-12-23, 02:19:04,VALID,995.903,VALID,0,VALID,92.4863,VALID,0,VALID,23.6214,VALID,62,VALID,0.677734,
2011-12-23, 02:20:04,VALID,995.871,VALID,0,VALID,92.41,VALID,0,VALID,23.6232,VALID,59,VALID,0.6625,
2011-12-23, 02:21:04,VALID,995.863,VALID,0,VALID,92.3871,VALID,0.104696,VALID,23.5841,VALID,41,VALID,0.542969,
2011-12-23, 02:22:04,VALID,995.834,VALID,0,VALID,92.4252,VALID,0.104696,VALID,23.5238,VALID,41,VALID,0.584375,
2011-12-23, 02:23:04,VALID,995.833,VALID,0,VALID,92.471,VALID,0.104696,VALID,23.4848,VALID,41,VALID,0.395703,
2011-12-23, 02:24:04,VALID,995.826,VALID,0,VALID,92.5244,VALID,0.104696,VALID,23.4458,VALID,41,VALID,0.398047,
2011-12-23, 02:25:04,VALID,995.816,VALID,0,VALID,92.6541,VALID,0,VALID,23.4475,VALID,41,VALID,0.489844,
2011-12-23, 02:26:04,VALID,995.82,VALID,0,VALID,92.7533,VALID,0,VALID,23.428,VALID,41,VALID,0.358594,
2011-12-23, 02:27:04,VALID,995.78,VALID,0,VALID,92.8448,VALID,0,VALID,23.4085,VALID,41,VALID,0.348828,
2011-12-23, 02:28:04,VALID,995.786,VALID,0,VALID,92.9364,VALID,0,VALID,23.389,VALID,41,VALID,0.330859,
2011-12-23, 02:29:04,VALID,995.81,VALID,0,VALID,93.0203,VALID,0,VALID,23.4103,VALID,41,VALID,0,
2011-12-23, 02:30:04,VALID,995.8,VALID,0,VALID,93.0814,VALID,0,VALID,23.4085,VALID,41,VALID,0,
2011-12-23, 02:31:04,VALID,995.776,VALID,0,VALID,93.1424,VALID,0,VALID,23.389,VALID,41,VALID,0.207031,
2011-12-23, 02:32:04,VALID,995.788,VALID,0,VALID,93.2034,VALID,0,VALID,23.428,VALID,41,VALID,0.371484,
2011-12-23, 02:33:04,VALID,995.77,VALID,0,VALID,93.2416,VALID,0,VALID,23.4475,VALID,68,VALID,0.439063,
2011-12-23, 02:34:04,VALID,995.776,VALID,0,VALID,93.2568,VALID,0,VALID,23.4884,VALID,68,VALID,0.3,
2011-12-23, 02:35:04,VALID,995.777,VALID,0,VALID,93.234,VALID,0,VALID,23.4866,VALID,68,VALID,0.576172,
2011-12-23, 02:36:04,VALID,995.765,VALID,0,VALID,93.15,VALID,0,VALID,23.5469,VALID,112,VALID,0.498437,
2011-12-23, 02:37:04,VALID,995.777,VALID,0,VALID,93.1271,VALID,0,VALID,23.5451,VALID,112,VALID,0.197266,
2011-12-23, 02:38:04,VALID,995.76,VALID,0,VALID,93.0432,VALID,0,VALID,23.5646,VALID,113,VALID,0.327344,
2011-12-23, 02:39:04,VALID,995.762,VALID,0,VALID,92.9593,VALID,0,VALID,23.5841,VALID,114,VALID,0.410156,
2011-12-23, 02:40:04,VALID,995.758,VALID,0,VALID,92.8677,VALID,0,VALID,23.6036,VALID,114,VALID,0.665625,
2011-12-23, 02:41:04,VALID,995.731,VALID,0,VALID,92.8067,VALID,0,VALID,23.6214,VALID,114,VALID,0.498437,
2011-12-23, 02:42:04,VALID,995.706,VALID,0,VALID,92.7151,VALID,0,VALID,23.6427,VALID,102,VALID,0.657422,
2011-12-23, 02:43:04,VALID,995.72,VALID,0,VALID,92.6083,VALID,0,VALID,23.6409,VALID,34,VALID,0.603125,
2011-12-23, 02:44:04,VALID,995.722,VALID,0,VALID,92.5702,VALID,0,VALID,23.6622,VALID,6,VALID,0.770312,
2011-12-23, 02:45:04,VALID,995.719,VALID,0,VALID,92.5397,VALID,0,VALID,23.6409,VALID,6,VALID,0.583203,
2011-12-23, 02:46:04,VALID,995.716,VALID,0,VALID,92.5091,VALID,0,VALID,23.6817,VALID,15,VALID,0.562109,
2011-12-23, 02:47:04,VALID,995.734,VALID,0,VALID,92.4634,VALID,0,VALID,23.6409,VALID,70,VALID,0.620313,
2011-12-23, 02:48:04,VALID,995.716,VALID,0,VALID,92.3871,VALID,0,VALID,23.7012,VALID,89,VALID,0.821484,
2011-12-23, 02:49:04,VALID,995.735,VALID,0,VALID,92.3108,VALID,0,VALID,23.6799,VALID,95,VALID,0.678516,
2011-12-23, 02:50:04,VALID,995.732,VALID,0,VALID,92.2116,VALID,0,VALID,23.7189,VALID,103,VALID,0.574219,
2011-12-23, 02:51:04,VALID,995.745,VALID,0,VALID,92.1353,VALID,0,VALID,23.7207,VALID,98,VALID,0.807031,
2011-12-23, 02:52:04,VALID,995.721,VALID,0,VALID,92.1429,VALID,0,VALID,23.7189,VALID,81,VALID,0.869922,
2011-12-23, 02:53:04,VALID,995.755,VALID,0,VALID,92.0971,VALID,0,VALID,23.7597,VALID,81,VALID,0.734766,
2011-12-23, 02:54:04,VALID,995.708,VALID,0,VALID,92.0971,VALID,0,VALID,23.7402,VALID,81,VALID,0.560547,
2011-12-23, 02:55:04,VALID,995.707,VALID,0,VALID,92.0743,VALID,0,VALID,23.7402,VALID,81,VALID,0.0488281,
2011-12-23, 02:56:04,VALID,995.713,VALID,0,VALID,92.0819,VALID,0,VALID,23.7207,VALID,81,VALID,0,
2011-12-23, 02:57:04,VALID,995.705,VALID,0,VALID,92.12,VALID,0,VALID,23.7012,VALID,81,VALID,0,
2011-12-23, 02:58:04,VALID,995.696,VALID,0,VALID,92.1353,VALID,0,VALID,23.6817,VALID,81,VALID,0,
2011-12-23, 02:59:04,VALID,995.703,VALID,0,VALID,92.1658,VALID,0,VALID,23.6427,VALID,81,VALID,0,
2011-12-23, 03:00:04,VALID,995.687,VALID,0,VALID,92.204,VALID,0,VALID,23.6427,VALID,81,VALID,0,
2011-12-23, 03:01:04,VALID,995.703,VALID,0,VALID,92.2345,VALID,0,VALID,23.6019,VALID,81,VALID,0.0839844,
2011-12-23, 03:02:04,VALID,995.703,VALID,0,VALID,92.2955,VALID,0,VALID,23.6214,VALID,81,VALID,0.342578,
2011-12-23, 03:03:04,VALID,995.662,VALID,0,VALID,92.3184,VALID,0.104696,VALID,23.6019,VALID,81,VALID,0.306641,
2011-12-23, 03:04:04,VALID,995.676,VALID,0,VALID,92.3871,VALID,0,VALID,23.5823,VALID,81,VALID,0.308984,
2011-12-23, 03:05:04,VALID,995.68,VALID,0,VALID,92.4328,VALID,0,VALID,23.6232,VALID,81,VALID,0.507422,
2011-12-23, 03:06:04,VALID,995.668,VALID,0,VALID,92.41,VALID,0,VALID,23.6214,VALID,81,VALID,0.492188,
2011-12-23, 03:07:04,VALID,995.663,VALID,0,VALID,92.41,VALID,0,VALID,23.6622,VALID,81,VALID,0.157813,
2011-12-23, 03:08:04,VALID,995.651,VALID,0,VALID,92.3718,VALID,0,VALID,23.6604,VALID,81,VALID,0.157813,
2011-12-23, 03:09:04,VALID,995.665,VALID,0,VALID,92.3031,VALID,0,VALID,23.6409,VALID,81,VALID,0.175,
2011-12-23, 03:10:04,VALID,995.659,VALID,0,VALID,92.2955,VALID,0,VALID,23.6622,VALID,88,VALID,0.426953,
2011-12-23, 03:11:04,VALID,995.675,VALID,0,VALID,92.2574,VALID,0,VALID,23.6817,VALID,89,VALID,0.242578,
2011-12-23, 03:12:04,VALID,995.697,VALID,0,VALID,92.2192,VALID,0,VALID,23.7012,VALID,89,VALID,0.135547,
2011-12-23, 03:13:04,VALID,995.673,VALID,0,VALID,92.2192,VALID,0,VALID,23.7012,VALID,83,VALID,0.74375,
2011-12-23, 03:14:04,VALID,995.693,VALID,0,VALID,92.1887,VALID,0,VALID,23.6994,VALID,100,VALID,0.625391,
2011-12-23, 03:15:04,VALID,995.7,VALID,0,VALID,92.1734,VALID,0,VALID,23.7402,VALID,96,VALID,0.716406,
2011-12-23, 03:16:04,VALID,995.691,VALID,0,VALID,92.1734,VALID,0,VALID,23.7189,VALID,96,VALID,0.491406,
2011-12-23, 03:17:04,VALID,995.663,VALID,0,VALID,92.1353,VALID,0,VALID,23.7207,VALID,96,VALID,0.392969,
2011-12-23, 03:18:04,VALID,995.678,VALID,0,VALID,92.0743,VALID,0,VALID,23.7402,VALID,73,VALID,0.376953,
2011-12-23, 03:19:04,VALID,995.658,VALID,0,VALID,92.0361,VALID,0,VALID,23.7402,VALID,73,VALID,0.626953,
2011-12-23, 03:20:04,VALID,995.649,VALID,0,VALID,91.9903,VALID,0,VALID,23.7597,VALID,73,VALID,0.602344,
2011-12-23, 03:21:04,VALID,995.629,VALID,0,VALID,91.9293,VALID,0,VALID,23.7402,VALID,73,VALID,0.428906,
2011-12-23, 03:22:04,VALID,995.64,VALID,0,VALID,91.8835,VALID,0,VALID,23.7597,VALID,81,VALID,0.800391,
2011-12-23, 03:23:04,VALID,995.613,VALID,0,VALID,91.8301,VALID,0,VALID,23.7384,VALID,92,VALID,0.348437,
2011-12-23, 03:24:04,VALID,995.567,VALID,0,VALID,91.8225,VALID,0,VALID,23.7597,VALID,92,VALID,0.402734,
2011-12-23, 03:25:04,VALID,995.576,VALID,0,VALID,91.8301,VALID,0,VALID,23.7597,VALID,92,VALID,0.178125,
2011-12-23, 03:26:04,VALID,995.605,VALID,0,VALID,91.8759,VALID,0,VALID,23.7207,VALID,92,VALID,0.39375,
2011-12-23, 03:27:04,VALID,995.625,VALID,0,VALID,91.7767,VALID,0,VALID,23.7207,VALID,94,VALID,0.688672,
2011-12-23, 03:28:04,VALID,995.563,VALID,0,VALID,91.7233,VALID,0,VALID,23.7402,VALID,97,VALID,0.405469,
2011-12-23, 03:29:04,VALID,995.584,VALID,0,VALID,91.708,VALID,0,VALID,23.7597,VALID,97,VALID,0.599609,
2011-12-23, 03:30:04,VALID,995.577,VALID,0,VALID,91.6088,VALID,0,VALID,23.7597,VALID,98,VALID,0.529688,
2011-12-23, 03:31:04,VALID,995.571,VALID,0,VALID,91.5478,VALID,0,VALID,23.7793,VALID,97,VALID,0.827344,
2011-12-23, 03:32:04,VALID,995.574,VALID,0,VALID,91.4181,VALID,0,VALID,23.7793,VALID,108,VALID,0.837891,
2011-12-23, 03:33:04,VALID,995.565,VALID,0,VALID,91.3266,VALID,0,VALID,23.7793,VALID,105,VALID,0.744531,
2011-12-23, 03:34:04,VALID,995.597,VALID,0,VALID,91.296,VALID,0,VALID,23.7793,VALID,99,VALID,0.0726563,
2011-12-23, 03:35:04,VALID,995.595,VALID,0,VALID,91.3113,VALID,0,VALID,23.7793,VALID,99,VALID,0,
2011-12-23, 03:36:04,VALID,995.632,VALID,0,VALID,91.3342,VALID,0,VALID,23.7597,VALID,99,VALID,0,
2011-12-23, 03:37:04,VALID,995.651,VALID,0,VALID,91.4334,VALID,0,VALID,23.7402,VALID,99,VALID,0,
2011-12-23, 03:38:04,VALID,995.646,VALID,0,VALID,91.4868,VALID,0,VALID,23.7402,VALID,99,VALID,0,
2011-12-23, 03:39:04,VALID,995.66,VALID,0,VALID,91.5478,VALID,0,VALID,23.7189,VALID,99,VALID,0,
2011-12-23, 03:40:04,VALID,995.675,VALID,0,VALID,91.5783,VALID,0,VALID,23.7207,VALID,99,VALID,0,
2011-12-23, 03:41:04,VALID,995.693,VALID,0,VALID,91.5326,VALID,0,VALID,23.7207,VALID,99,VALID,0,
2011-12-23, 03:42:04,VALID,995.693,VALID,0,VALID,91.4715,VALID,0,VALID,23.7402,VALID,99,VALID,0,
2011-12-23, 03:43:04,VALID,995.733,VALID,0,VALID,91.4105,VALID,0,VALID,23.7402,VALID,99,VALID,0,
2011-12-23, 03:44:04,VALID,995.716,VALID,0,VALID,91.3647,VALID,0,VALID,23.7402,VALID,123,VALID,0.976172,
2011-12-23, 03:45:04,VALID,995.689,VALID,0,VALID,91.3189,VALID,0,VALID,23.7402,VALID,124,VALID,0.745703,
2011-12-23, 03:46:04,VALID,995.708,VALID,0,VALID,91.2731,VALID,0,VALID,23.7597,VALID,124,VALID,0.736719,
2011-12-23, 03:47:04,VALID,995.697,VALID,0,VALID,91.1892,VALID,0,VALID,23.7988,VALID,127,VALID,0.934766,
2011-12-23, 03:48:04,VALID,995.67,VALID,0,VALID,91.0519,VALID,0,VALID,23.7793,VALID,128,VALID,0.720703,
2011-12-23, 03:49:04,VALID,995.695,VALID,0,VALID,91.0443,VALID,0,VALID,23.7988,VALID,117,VALID,0.832031,